Weather History for Culpeper, VA

Change the Weather History Date:

Monday, April 29, 2013

  Actual Average (KOMH) Record (KOMH)
Temperature  
Mean Temperature 58 °F -  
Max Temperature 62 °F 70 °F 88 °F (1974)
Min Temperature 53 °F 44 °F 32 °F (1977)
Degree Days  
Heating Degree Days 8    
Growing Degree Days 8 (Base 50)    
Moisture  
Dew Point 57 °F    
Average Humidity 99    
Maximum Humidity 100    
Minimum Humidity 82    
Precipitation  
Precipitation 0.23 in - - ()
Sea Level Pressure  
Sea Level Pressure 30.09 in    
Wind  
Wind Speed 2 mph (ENE)    
Max Wind Speed 6 mph    
Max Gust Speed -    
Visibility 6 miles    
Events Rain    
Averages and records for this station are not official NWS values.
T = Trace of Precipitation, MM = Missing Value Source: NWS Daily Summary

Daily Weather History Graph

Daily Weather History Graph

Search for Another Location

Airport:

Trip Planner

Search our weather history database for the weather conditions in past years. The results will help you decide how hot, cold, wet, or windy it might be!

Date:

Astronomy

Apr. 29, 2013 Rise Set
Actual Time 6:16 AM EDT 8:01 PM EDT
Civil Twilight 5:48 AM EDT 8:30 PM EDT
Nautical Twilight 5:13 AM EDT 9:04 PM EDT
Astronomical Twilight 4:37 AM EDT 9:41 PM EDT
Moon No Moon Rise 9:36 AM EDT (4/29)
Length of Visible Light 14h 42m
Length of Day
13h 45m
Waning Gibbous, 80% of the Moon is Illuminated
Apr 29
Waning Gibbous
May 2
Last Quarter
May 9
New
May 18
First Quarter
May 25
Full

Hourly Weather History & Observations

Time (EDT) Temp. Dew Point Humidity Pressure Visibility Wind Dir Wind Speed Gust Speed Precip Events Conditions
12:15 AM 57.2 °F 51.8 °F 82% 30.17 in 10.0 mi South 4.6 mph - N/A   Overcast
12:35 AM 55.4 °F 51.8 °F 88% 30.17 in 10.0 mi Calm Calm - N/A   Overcast
12:55 AM 55.4 °F 51.8 °F 88% 30.16 in 5.0 mi SSE 3.5 mph - N/A Rain Heavy Rain
1:15 AM 55.4 °F 53.6 °F 94% 30.16 in 5.0 mi SSE 4.6 mph - N/A   Drizzle
1:35 AM 55.4 °F 53.6 °F 94% 30.15 in 7.0 mi SSE 3.5 mph - N/A   Overcast
1:55 AM 53.6 °F 53.6 °F 100% 30.14 in 7.0 mi Calm Calm - N/A Rain Light Rain
2:15 AM 53.6 °F 53.6 °F 100% 30.13 in 7.0 mi Calm Calm - N/A Rain Light Rain
2:35 AM 53.6 °F 53.6 °F 100% 30.12 in 7.0 mi SSE 4.6 mph - N/A   Light Drizzle
2:55 AM 55.4 °F 55.4 °F 100% 30.11 in 7.0 mi SE 3.5 mph - N/A   Overcast
3:15 AM 55.4 °F 55.4 °F 100% 30.11 in 7.0 mi Calm Calm - N/A   Drizzle
3:35 AM 55.4 °F 55.4 °F 100% 30.11 in 7.0 mi Calm Calm - N/A   Drizzle
3:55 AM 53.6 °F 53.6 °F 100% 30.10 in 5.0 mi Calm Calm - 0.01 in Rain Rain
4:15 AM 53.6 °F 53.6 °F 100% 30.10 in 4.0 mi Calm Calm - 0.02 in Rain Rain
4:35 AM 53.6 °F 53.6 °F 100% 30.10 in 4.0 mi Calm Calm - 0.05 in Rain Rain
4:55 AM 53.6 °F 53.6 °F 100% 30.10 in 4.0 mi Calm Calm - 0.08 in Rain Rain
5:15 AM 53.6 °F 53.6 °F 100% 30.09 in 5.0 mi Calm Calm - 0.02 in Rain Light Rain
5:35 AM 53.6 °F 53.6 °F 100% 30.09 in 5.0 mi Calm Calm - 0.02 in   Drizzle
5:55 AM 53.6 °F 53.6 °F 100% 30.08 in 7.0 mi Calm Calm - 0.03 in   Light Drizzle
6:15 AM 53.6 °F 53.6 °F 100% 30.09 in 7.0 mi Calm Calm - N/A   Overcast
6:35 AM 53.6 °F 53.6 °F 100% 30.09 in 7.0 mi Calm Calm - N/A   Overcast
6:55 AM 53.6 °F 53.6 °F 100% 30.10 in 5.0 mi Calm Calm - N/A   Overcast
7:15 AM 55.4 °F 55.4 °F 100% 30.10 in 5.0 mi Calm Calm - N/A   Overcast
7:35 AM 55.4 °F 55.4 °F 100% 30.10 in 5.0 mi Calm Calm - N/A Rain Light Rain
7:55 AM 55.4 °F 55.4 °F 100% 30.11 in 2.0 mi Calm Calm - 0.01 in Rain Heavy Rain
8:15 AM 55.4 °F 55.4 °F 100% 30.10 in 2.0 mi Calm Calm - 0.02 in   Heavy Drizzle
8:35 AM 55.4 °F 55.4 °F 100% 30.10 in 2.5 mi Calm Calm - 0.03 in   Heavy Drizzle
8:55 AM 55.4 °F 55.4 °F 100% 30.10 in 3.0 mi Calm Calm - 0.03 in Rain Rain
9:15 AM 55.4 °F 55.4 °F 100% 30.10 in 4.0 mi Calm Calm - 0.01 in Rain Rain
9:35 AM 55.4 °F 55.4 °F 100% 30.09 in 5.0 mi North 3.5 mph - 0.02 in Rain Heavy Rain
9:55 AM 55.4 °F 55.4 °F 100% 30.09 in 7.0 mi North 4.6 mph - 0.03 in   Drizzle
10:15 AM 55.4 °F 55.4 °F 100% 30.09 in 5.0 mi North 4.6 mph - N/A   Drizzle
10:35 AM 55.4 °F 55.4 °F 100% 30.08 in 7.0 mi NNE 3.5 mph - 0.01 in   Drizzle
10:55 AM 57.2 °F 57.2 °F 100% 30.09 in 10.0 mi NNW 3.5 mph - 0.01 in   Drizzle
11:15 AM 57.2 °F 57.2 °F 100% 30.09 in 4.0 mi NNW 3.5 mph - N/A   Heavy Drizzle
11:35 AM 57.2 °F 57.2 °F 100% 30.09 in 2.0 mi North 3.5 mph - N/A   Drizzle
11:55 AM 57.2 °F 57.2 °F 100% 30.08 in 2.0 mi Calm Calm - 0.01 in   Drizzle
12:15 PM 57.2 °F 57.2 °F 100% 30.08 in 1.8 mi Calm Calm - N/A   Light Drizzle
12:35 PM 59.0 °F 59.0 °F 100% 30.07 in 2.0 mi Calm Calm - N/A   Overcast
12:55 PM 60.8 °F 60.8 °F 100% 30.07 in 3.0 mi Calm Calm - N/A   Overcast
1:15 PM 60.8 °F 60.8 °F 100% 30.06 in 3.0 mi ENE 4.6 mph - N/A   Overcast
1:35 PM 60.8 °F 60.8 °F 100% 30.06 in 4.0 mi Calm Calm - N/A   Overcast
1:55 PM 60.8 °F 60.8 °F 100% 30.06 in 3.0 mi Calm Calm - N/A Rain Rain
2:15 PM 60.8 °F 60.8 °F 100% 30.06 in 2.0 mi Calm Calm - N/A   Drizzle
2:35 PM 60.8 °F 60.8 °F 100% 30.05 in 4.0 mi ESE 3.5 mph - N/A   Overcast
2:55 PM 60.8 °F 60.8 °F 100% 30.05 in 2.5 mi East 5.8 mph - 0.01 in   Drizzle
3:15 PM 60.8 °F 60.8 °F 100% 30.05 in 2.0 mi ESE 4.6 mph - N/A   Drizzle
3:35 PM 60.8 °F 60.8 °F 100% 30.04 in 3.0 mi Calm Calm - N/A   Overcast
3:55 PM 60.8 °F 60.8 °F 100% 30.04 in 3.0 mi ENE 3.5 mph - 0.01 in   Light Drizzle
4:15 PM 60.8 °F 60.8 °F 100% 30.03 in 2.5 mi Calm Calm - N/A Rain Rain
4:35 PM 60.8 °F 60.8 °F 100% 30.03 in 5.0 mi SE 3.5 mph - N/A   Overcast
4:55 PM 62.6 °F 60.8 °F 94% 30.03 in 10.0 mi East 4.6 mph - N/A   Overcast
5:15 PM 62.6 °F 60.8 °F 94% 30.03 in 10.0 mi Calm Calm - N/A   Overcast
5:35 PM 60.8 °F 60.8 °F 100% 30.03 in 10.0 mi Calm Calm - N/A   Overcast
5:55 PM 60.8 °F 60.8 °F 100% 30.04 in 7.0 mi East 4.6 mph - N/A Rain Rain
6:15 PM 59.0 °F 59.0 °F 100% 30.04 in 3.0 mi East 5.8 mph - N/A   Drizzle
6:35 PM 59.0 °F 59.0 °F 100% 30.04 in 5.0 mi Calm Calm - N/A   Light Drizzle
6:55 PM 59.0 °F 59.0 °F 100% 30.05 in 5.0 mi East 4.6 mph - N/A   Overcast
7:15 PM 57.2 °F 57.2 °F 100% 30.05 in 10.0 mi NE 3.5 mph - N/A   Overcast
7:35 PM 57.2 °F 57.2 °F 100% 30.06 in 10.0 mi ENE 5.8 mph - N/A   Overcast
7:55 PM 57.2 °F 57.2 °F 100% 30.07 in 10.0 mi Calm Calm - N/A   Overcast
8:15 PM 57.2 °F 57.2 °F 100% 30.07 in 10.0 mi ENE 3.5 mph - N/A   Overcast
8:35 PM 57.2 °F 57.2 °F 100% 30.07 in 10.0 mi Calm Calm - N/A   Overcast
8:55 PM 57.2 °F 57.2 °F 100% 30.08 in 10.0 mi ENE 3.5 mph - N/A   Overcast
9:15 PM 57.2 °F 57.2 °F 100% 30.08 in 10.0 mi Calm Calm - N/A   Overcast
9:35 PM 57.2 °F 57.2 °F 100% 30.09 in 10.0 mi NNE 3.5 mph - N/A   Overcast
9:55 PM 57.2 °F 57.2 °F 100% 30.10 in 10.0 mi Calm Calm - N/A   Overcast
10:15 PM 57.2 °F 57.2 °F 100% 30.10 in 10.0 mi Calm Calm - N/A   Overcast
10:35 PM 57.2 °F 57.2 °F 100% 30.10 in 10.0 mi NE 3.5 mph - N/A   Overcast
10:55 PM 57.2 °F 57.2 °F 100% 30.10 in 7.0 mi NNE 3.5 mph - N/A   Overcast
11:15 PM 57.2 °F 57.2 °F 100% 30.10 in 7.0 mi NNE 3.5 mph - N/A   Overcast
11:35 PM 57.2 °F 57.2 °F 100% 30.10 in 7.0 mi North 4.6 mph - N/A   Overcast
11:55 PM 57.2 °F 57.2 °F 100% 30.10 in 10.0 mi NNE 5.8 mph - N/A   Overcast